Regional Weather Roundup
Issued by NWS

Home | Current Version | Previous Version | Graphics & Text | Print | Product List | Glossary On
Versions: 1 2 3 4 5 6 7 8 9 10 11 12 13 14 15 16 17 18 19 20 21 22 23 24 25 26 27 28 29 30 31 32 33 34 35 36 37 38 39 40 41 42 43 44 45 46 47 48 49 50
727
ASUS45 KPSR 231110
RWRAZ

ARIZONA HOURLY REGIONAL WEATHER ROUNDUP
NATIONAL WEATHER SERVICE PHOENIX AZ
400 AM MST WED MAY 23 2018

NOTE: FAIR INDICATES FEW OR NO CLOUDS BELOW 12,000 FEET WITH NO
SIGNIFICANT WEATHER AND/OR OBSTRUCTIONS TO VISIBILITY.

AZZ001>003-036-231200-
NORTHWEST ARIZONA

CITY           SKY/WX    TMP DP  RH WIND       PRES   REMARKS
BULLHEAD CITY  CLEAR     73  32  21 CALM      29.77R
KINGMAN        CLEAR     57  31  37 SE10      29.91R
$$

AZZ004>008-015-016-018-231200-
NORTH CENTRAL ARIZONA

CITY           SKY/WX    TMP DP  RH WIND       PRES   REMARKS
GRAND CANYON   CLEAR     30  22  72 CALM      30.09R
WILLIAMS       CLEAR     39  19  45 S12       30.06S WCI  32
PRESCOTT       CLEAR     48  33  56 S7        30.01R
FLAGSTAFF      CLEAR     34  18  52 CALM      30.11R
PAGE           CLEAR     57  33  40 SE3       29.96R
$$

AZZ009>014-017-231200-
NORTHEAST ARIZONA

CITY           SKY/WX    TMP DP  RH WIND       PRES   REMARKS
WINSLOW        CLEAR     49  18  29 E3        30.04R
SAINT JOHNS    CLEAR     48  21  34 S8        30.07R
WINDOW ROCK    CLEAR     38  16  40 CALM      30.11R
SHOW LOW       CLEAR     43  18  36 CALM      30.12R
$$

AZZ540-542>544-546-548-231200-
GREATER PHOENIX AREA

CITY           SKY/WX    TMP DP  RH WIND       PRES   REMARKS
PHOENIX        CLEAR     72  34  24 E8        29.82S
BUCKEYE        CLEAR     61  27  27 N7        29.84S
LUKE AFB       CLEAR     65  36  34 CALM      29.83R
DEER VALLEY    CLEAR     68  32  26 E6        29.84R
SCOTTSDALE     CLEAR     69  37  30 E5        29.86R
MESA-GATEWAY   CLEAR     65  26  22 E7        29.87R
$$

AZZ539-553-231200-
SOUTHWEST MARICOPA COUNTY AND PINAL COUNTY

CITY           SKY/WX    TMP DP  RH WIND       PRES   REMARKS
CASA GRANDE    CLEAR     65  31  28 CALM      29.87
GILA BEND      FAIR      66  30  26 S9        29.82R
$$

AZZ503-504-507>509-231200-
SOUTHEAST ARIZONA

CITY           SKY/WX    TMP DP  RH WIND       PRES   REMARKS
TUCSON         CLEAR     64  32  30 S5        29.92S
DAVIS-MONTHAN  CLEAR     61  33  34 S6        29.91R
NOGALES        CLEAR     55  36  48 N3        29.97S
SIERRA VISTA   CLEAR     58  30  34 CALM      30.02S
DOUGLAS        CLEAR     54  28  36 NE3       30.00R
SAFFORD        CLEAR     62  22  21 CALM      29.92R
$$

AZZ532-231200-
SOUTHWEST ARIZONA

CITY           SKY/WX    TMP DP  RH WIND       PRES   REMARKS
YUMA           CLEAR     70  53  54 SE12      29.78R
$$

CAZ041-043-047-048-061-525>527-560>570-231200-
SOUTHERN CALIFORNIA

CITY           SKY/WX    TMP DP  RH WIND       PRES   REMARKS
DOWNTOWN L.A.  CLOUDY    60  54  80 CALM      29.93R
L.A. AIRPORT   CLOUDY    59  54  83 W7        29.94R
SAN DIEGO      CLOUDY    61  52  72 SE7       29.95S
BURBANK        CLOUDY    59  54  83 SE5       29.92R
ONTARIO        MOCLDY    56  50  80 CALM      29.93R
RIVERSIDE      CLOUDY    57  51  80 W3        29.93S
PALM SPRINGS   CLEAR     69  50  50 W6        29.79S
EL CENTRO NAS  CLEAR     67  43  41 W5        29.79R
IMPERIAL       CLEAR     66  47  50 SW5       29.77R
BLYTHE         CLEAR     70  45  40 S9        29.78R
NEEDLES        CLEAR     76  31  19 S3        29.79R
$$

NVZ020-UTZ003-231200-
SOUTHERN NEVADA-UTAH

CITY           SKY/WX    TMP DP  RH WIND       PRES   REMARKS
LAS VEGAS      PTCLDY    71  35  26 CALM      29.81R
SALT LAKE CITY PTCLDY    55  46  71 SE12      29.93S
$$

NMZ009-TXZ055-231200-
NEW MEXICO-WEST TEXAS

CITY           SKY/WX    TMP DP  RH WIND       PRES   REMARKS
ALBUQUERQUE    CLEAR     57  43  59 N6        30.04R
EL PASO        CLEAR     70  34  26 CALM      29.95R
$$


........................KEY........................
SKY/WX - SKY CONDITION/WEATHER
TMP    - TEMPERATURE IN FAHRENHEIT
DP     - DEW POINT IN FAHRENHEIT
RH     - RELATIVE HUMIDITY IN PERCENT
WIND   - DIRECTION AND SPEED IN MILES PER HOUR (MPH)
VRB    - VARIABLE WIND DIRECTION
PRES   - MEAN SEA LEVEL PRESSURE IN INCHES OF MERCURY
         F - FALLING PRESSURE   R - RISING PRESSURE
         S - STEADY PRESSURE
VSB    - VISIBILITY IN MILES
HX     - HEAT INDEX IN FAHRENHEIT
WCI    - WIND CHILL INDEX IN FAHRENHEIT
TC     - TEMPERATURE IN CELSIUS WHICH IS ALSO KNOWN AS
         TEMPERATURE IN CENTIGRADE
AFB    - AIR FORCE BASE
         LUKE AFB IS LUKE AIR FORCE BASE
         DAVIS-MONTHAN IS DAVIS-MONTHAN AIR FORCE BASE
NAS    - NAVAL AIR STATION
         EL CENTRO NAS IS EL CENTRO NAVAL AIR STATION
N/A    - NOT AVAILABLE





USA.gov is the U.S. government's official web portal to all federal, state and local government web resources and services.